Voltar ao catálogo

FENGYUN 1C DEB

LostSSO
NORAD 36677·DEBRIS·🇨🇳 China

Lançado May 10, 1999 de Taiyuan Satellite Launch Center

Loading…

Próximas Passagens (próximas 24 horas)

TLE

ObsoletoSource: Space-Track

Época: Mar 4, 2025, 08:49 UTC

1 36677U 99025DYX 25063.36777956  .00004167  00000-0  20532-2 0  9992
2 36677  98.7254 115.2600 0058676 321.5697  98.3206 14.17166357602788

Acompanhe FENGYUN 1C DEB em tempo real com AllMySat

Download on the App Store